TimeMST,TemperatureF,Dew PointF,Humidity,Sea Level PressureIn,VisibilityMPH,Wind Direction,Wind SpeedMPH,Gust SpeedMPH,PrecipitationIn,Events,Conditions,WindDirDegrees,DateUTC
12:55 AM,16.0,8.1,71,29.98,10.0,ESE,9.2,-,N/A,,Overcast,110,2012-12-27 07:55:00
1:55 AM,15.1,7.0,70,29.99,10.0,ESE,10.4,-,N/A,,Overcast,110,2012-12-27 08:55:00
2:55 AM,15.1,7.0,70,29.99,10.0,ESE,10.4,-,N/A,,Overcast,120,2012-12-27 09:55:00
3:55 AM,16.0,9.0,74,29.98,10.0,ESE,8.1,-,N/A,,Overcast,110,2012-12-27 10:55:00
4:55 AM,16.0,10.0,77,29.98,7.0,ESE,11.5,-,0.00,Snow,Light Snow,110,2012-12-27 11:55:00
5:55 AM,15.1,10.9,84,29.99,9.0,East,6.9,-,0.00,,Overcast,100,2012-12-27 12:55:00
6:32 AM,15.8,12.2,86,29.89,2.0,East,6.9,-,0.00,Snow,Light Snow,90,2012-12-27 13:32:00
6:39 AM,15.8,12.2,86,29.89,1.2,East,6.9,-,0.00,Snow,Light Snow,90,2012-12-27 13:39:00
6:55 AM,15.1,12.0,88,29.99,1.8,East,8.1,-,0.01,Snow,Light Snow,90,2012-12-27 13:55:00
7:24 AM,15.8,12.2,86,29.89,0.8,East,8.1,-,0.02,Snow,Light Snow,100,2012-12-27 14:24:00
7:46 AM,15.8,12.2,86,29.90,1.0,ESE,9.2,-,0.03,Snow,Light Snow,110,2012-12-27 14:46:00
7:55 AM,15.1,12.0,88,30.00,1.2,ESE,10.4,-,0.03,Snow,Light Snow,110,2012-12-27 14:55:00
8:37 AM,15.8,12.2,86,29.92,2.5,SE,9.2,-,0.01,Snow,Light Snow,130,2012-12-27 15:37:00
8:55 AM,15.1,10.9,84,30.02,3.0,ESE,8.1,-,0.01,Snow,Light Snow,120,2012-12-27 15:55:00
9:26 AM,15.8,12.2,86,29.94,2.5,SE,9.2,-,0.01,Snow,Light Snow,130,2012-12-27 16:26:00
9:51 AM,15.8,10.4,79,29.94,3.0,SE,6.9,-,0.01,Snow,Light Snow,140,2012-12-27 16:51:00
9:55 AM,17.1,12.0,81,30.04,3.0,SE,9.2,-,0.01,Snow,Light Snow,130,2012-12-27 16:55:00
10:41 AM,15.8,10.4,79,29.93,1.8,ESE,9.2,-,0.00,Snow,Light Snow,120,2012-12-27 17:41:00
10:55 AM,17.1,12.0,81,30.02,1.8,East,6.9,-,0.00,Snow,Light Snow,100,2012-12-27 17:55:00
11:12 AM,17.6,10.4,73,29.92,3.0,ESE,5.8,-,0.00,Snow,Light Snow,110,2012-12-27 18:12:00
11:29 AM,17.6,10.4,73,29.92,5.0,East,6.9,-,0.00,Snow,Light Snow,100,2012-12-27 18:29:00
11:46 AM,17.6,10.4,73,29.92,6.0,East,6.9,-,0.00,Snow,Light Snow,90,2012-12-27 18:46:00
11:55 AM,17.1,10.9,77,30.01,3.0,East,5.8,-,0.00,Snow,Light Snow,100,2012-12-27 18:55:00
12:55 PM,18.0,10.9,74,30.00,10.0,ENE,3.5,-,0.00,,Overcast,60,2012-12-27 19:55:00
1:55 PM,17.1,12.0,81,30.01,5.0,ENE,5.8,-,0.00,Snow,Light Snow,60,2012-12-27 20:55:00
2:48 PM,17.6,10.4,73,29.93,2.5,NE,5.8,-,0.00,Snow,Light Snow,50,2012-12-27 21:48:00
2:55 PM,17.1,12.0,81,30.03,3.0,NE,6.9,-,0.00,Snow,Light Snow,50,2012-12-27 21:55:00
3:55 PM,15.1,10.9,84,30.05,2.5,NE,6.9,-,0.01,Snow,Light Snow,50,2012-12-27 22:55:00
4:07 PM,15.8,10.4,79,29.95,3.0,NE,4.6,-,0.00,Snow,Light Snow,40,2012-12-27 23:07:00
4:15 PM,15.8,10.4,79,29.95,4.0,NNE,4.6,-,0.00,Snow,Light Snow,30,2012-12-27 23:15:00
4:55 PM,14.0,10.0,84,30.08,6.0,NNE,5.8,-,0.00,Snow,Light Snow,30,2012-12-27 23:55:00
5:53 PM,10.4,8.6,92,29.98,5.0,North,6.9,-,0.00,Snow,Light Snow,360,2012-12-28 00:53:00
5:55 PM,10.9,8.1,88,30.09,5.0,North,6.9,-,0.00,Snow,Light Snow,360,2012-12-28 00:55:00
6:55 PM,10.0,7.0,87,30.11,5.0,North,6.9,-,0.00,Snow,Light Snow,360,2012-12-28 01:55:00
7:13 PM,10.4,6.8,85,30.00,5.0,North,6.9,-,0.00,Snow,Light Snow,350,2012-12-28 02:13:00
7:55 PM,8.1,5.0,87,30.12,3.0,North,6.9,-,0.00,Snow,Light Snow,360,2012-12-28 02:55:00
8:32 PM,3.2,-0.4,85,30.01,10.0,WNW,5.8,-,0.00,,Partly Cloudy,300,2012-12-28 03:32:00
8:55 PM,1.9,-0.9,88,30.14,10.0,WNW,5.8,-,0.00,,Clear,300,2012-12-28 03:55:00
9:55 PM,1.0,-0.9,91,30.15,10.0,West,8.1,-,N/A,,Partly Cloudy,280,2012-12-28 04:55:00
10:05 PM,1.4,-0.4,92,30.03,10.0,WNW,8.1,-,N/A,,Scattered Clouds,290,2012-12-28 05:05:00
10:17 PM,1.4,-0.4,92,30.03,10.0,WNW,6.9,-,N/A,,Mostly Cloudy,290,2012-12-28 05:17:00
10:37 PM,-0.4,-2.2,92,30.03,1.8,West,6.9,-,N/A,,Mostly Cloudy,280,2012-12-28 05:37:00
10:55 PM,-0.0,-0.9,96,30.16,1.0,West,6.9,-,N/A,,Mist,280,2012-12-28 05:55:00
11:03 PM,-0.4,-2.2,92,30.03,3.0,West,5.8,-,N/A,,Overcast,270,2012-12-28 06:03:00
11:55 PM,1.9,-0.9,88,30.15,10.0,West,4.6,-,N/A,,Overcast,260,2012-12-28 06:55:00